Location: Bessat
(45.8735°N, 1.9924°E)
Time: 08:56:14
(UTC+00:00)

Cosmos 1777 Rocket - Pass Details

Date: 11 May 2021
Orbit: 758 x 776 km, 74.0° (Epoch: 16 June)

Event Time Altitude Azimuth Distance (km) Brightness Sun altitude
Exits shadow 20:43:29 - 192° (SSW) 3,220 6.9 -13.6°
Rises 20:43:32 0° 192° (SSW) 3,203 6.9 -13.6°
Reaches altitude 10° 20:45:54 10° 190° (S) 2,281 6.1 -13.9°
Maximum altitude 20:51:02 69° 108° (ESE) 812 3.9 -14.5°
Drops below altitude 10° 20:56:12 10° 26° (NNE) 2,298 6.7 -15.1°
Sets 20:58:35 0° 24° (NNE) 3,229 7.6 -15.4°
